Visibility
15.0 15.0 15.0 15.0 15.0 15.0 15.0 15.0 15.0 15.0 15.0 15.0 15.0 15.0 15.0 15.0 15.0 15.0 15.0 15.0 15.0 15.0 15.0 15.0 15.0 15.0 15.0 15.0 15.0 15.0 15.0 15.0 15.0 15.0 15.0 15.0 15.0 15.0 15.0 15.0 15.0 15.0 15.0
15.0 15.0 15.0 15.0 15.0 15.0 15.0 15.0 15.0 15.0 15.0 15.0 15.0 15.0 15.0 15.0 15.0 15.0 15.0 15.0 15.0 15.0 15.0 15.0 15.0 15.0 15.0 15.0 15.0 15.0 15.0 15.0 15.0 15.0 15.0 15.0 15.0 15.0 15.0 15.0 15.0 15.0 15.0
15.0 15.0 15.0 15.0 15.0 15.0 15.0 15.0 15.0 15.0 15.0 15.0 15.0 15.0 15.0 15.0 15.0 15.0 15.0 15.0 1.2 15.0 15.0 15.0 15.0 15.0 15.0 15.0 15.0 15.0 15.0 15.0 15.0 15.0 15.0 15.0 15.0 15.0 15.0 15.0 15.0 15.0 15.0
15.0 15.0 15.0 15.0 15.0 15.0 15.0 15.0 15.0 15.0 15.0 15.0 15.0 15.0 15.0 15.0 15.0 15.0 15.0 15.0 15.0 15.0 15.0 15.0 15.0 15.0 15.0 15.0 15.0 15.0 15.0 15.0 15.0 15.0 15.0 15.0 15.0 15.0 15.0 15.0 15.0 15.0 15.0
15.0 15.0 15.0 15.0 15.0 15.0 15.0 15.0 15.0 15.0 15.0 15.0 15.0 15.0 15.0 15.0 15.0 15.0 15.0 15.0 15.0 15.0 15.0 15.0 15.0 15.0 15.0 15.0 15.0 15.0 15.0 15.0 15.0 15.0 15.0 15.0 15.0 15.0 15.0 15.0 15.0 15.0 15.0
15.0 15.0 15.0 15.0 15.0 15.0 15.0 15.0 15.0 15.0 15.0 15.0 15.0 15.0 15.0 15.0 15.0 15.0 15.0 15.0 15.0 15.0 15.0 15.0 15.0 15.0 15.0 15.0 15.0 15.0 15.0 15.0 15.0 15.0 15.0 15.0 15.0 15.0 15.0 15.0 15.0 15.0 15.0
15.0 15.0 15.0 15.0 15.0 15.0 15.0 15.0 15.0 15.0 15.0 15.0 15.0 15.0 15.0 15.0 15.0 15.0 15.0 15.0 15.0 15.0 15.0 15.0 15.0 15.0 15.0 15.0 15.0 15.0 15.0 15.0 15.0 15.0 15.0 15.0 15.0 15.0 15.0 15.0 15.0 15.0 15.0
15.0 15.0 15.0 15.0 15.0 14.9 8.1 13.4 15.0 15.0 15.0 15.0 15.0 15.0 15.0 15.0 15.0 15.0 15.0 15.0 15.0 15.0 15.0 15.0 15.0 15.0 15.0 15.0 15.0 15.0 15.0 15.0 15.0 15.0 15.0 15.0 15.0 15.0 15.0 15.0 15.0 15.0 15.0
15.0 15.0 15.0 15.0 15.0 5.9 4.6 8.9 15.0 15.0 13.7 15.0 15.0 15.0 15.0 15.0 15.0 15.0 15.0 15.0 15.0 15.0 15.0 15.0 15.0 15.0 15.0 15.0 15.0 15.0 15.0 15.0 15.0 15.0 15.0 15.0 15.0 15.0 15.0 15.0 15.0 15.0 15.0
15.0 15.0 15.0 15.0 15.0 6.6 6.9 9.8 15.0 15.0 15.0 15.0 15.0 15.0 15.0 15.0 15.0 15.0 15.0 15.0 15.0 15.0 15.0 15.0 15.0 15.0 15.0 15.0 15.0 15.0 15.0 15.0 15.0 15.0 15.0 15.0 15.0 15.0 15.0 15.0 15.0 15.0 15.0
15.0 15.0 3.0 6.2 9.6 15.0 9.2 9.7 9.1 12.8 13.7 15.0 15.0 14.9 15.0 15.0 15.0 15.0 15.0 15.0 15.0 15.0 15.0 15.0 15.0 15.0 15.0 15.0 15.0 15.0 15.0 15.0 15.0 15.0 15.0 15.0 15.0 15.0 15.0 15.0 15.0 15.0 15.0
15.0 15.0 15.0 8.5 12.6 6.0 5.1 11.3 13.9 11.3 14.4 15.0 15.0 15.0 15.0 15.0 15.0 15.0 15.0 15.0 15.0 15.0 15.0 15.0 15.0 15.0 15.0 15.0 15.0 15.0 15.0 15.0 15.0 15.0 15.0 15.0 15.0 15.0 15.0 15.0 15.0 15.0 15.0
15.0 15.0 10.7 15.0 12.6 15.0 5.9 7.0 15.0 13.7 14.1 15.0 15.0 15.0 15.0 15.0 15.0 15.0 15.0 15.0 15.0 15.0 15.0 15.0 15.0 15.0 15.0 15.0 15.0 15.0 15.0 15.0 15.0 15.0 15.0 15.0 15.0 15.0 15.0 15.0 15.0 15.0 15.0
15.0 15.0 4.8 4.3 12.8 15.0 15.0 3.6 4.1 5.7 15.0 6.9 15.0 13.9 12.2 5.2 15.0 15.0 15.0 15.0 15.0 15.0 15.0 15.0 15.0 15.0 15.0 15.0 15.0 15.0 15.0 15.0 15.0 15.0 15.0 15.0 15.0 15.0 15.0 15.0 15.0 15.0 15.0
15.0 15.0 15.0 15.0 5.0 15.0 15.0 15.0 15.0 3.4 14.0 13.9 15.0 15.0 15.0 15.0 15.0 12.8 15.0 15.0 15.0 15.0 15.0 15.0 15.0 15.0 15.0 15.0 15.0 15.0 15.0 15.0 15.0 15.0 15.0 15.0 15.0 15.0 15.0 15.0 15.0 15.0 15.0
15.0 15.0 12.6 14.7 9.6 3.4 8.2 15.0 15.0 14.2 5.6 15.0 15.0 7.1 15.0 15.0 15.0 15.0 15.0 15.0 15.0 15.0 15.0 15.0 15.0 15.0 15.0 15.0 15.0 15.0 15.0 15.0 15.0 15.0 15.0 15.0 15.0 15.0 15.0 15.0 15.0 15.0 15.0
15.0 15.0 12.1 10.1 15.0 15.0 13.9 15.0 14.5 15.0 15.0 5.3 6.3 15.0 15.0 5.1 15.0 15.0 15.0 15.0 15.0 15.0 15.0 9.0 15.0 15.0 15.0 15.0 15.0 15.0 15.0 15.0 15.0 15.0 15.0 15.0 15.0 15.0 15.0 15.0 15.0 15.0 15.0
14.3 4.2 3.7 2.3 13.1 14.9 13.6 14.6 1.3 7.5 14.8 11.0 13.8 13.0 9.9 5.2 15.0 15.0 15.0 15.0 15.0 15.0 15.0 8.3 6.7 15.0 15.0 15.0 15.0 15.0 15.0 15.0 15.0 15.0 15.0 15.0 15.0 15.0 15.0 15.0 15.0 15.0 15.0
5.3 12.4 0.7 11.8 4.0 4.6 4.2 15.0 14.7 5.5 5.9 13.1 9.3 8.6 15.0 15.0 13.1 15.0 15.0 15.0 15.0 13.0 15.0 15.0 15.0 15.0 15.0 14.4 15.0 15.0 15.0 15.0 15.0 13.3 10.0 15.0 15.0 15.0 15.0 15.0 15.0 15.0 15.0
3.9 3.6 2.6 5.4 0.3 0.1 2.0 7.0 5.4 6.2 6.8 6.6 9.8 9.4 11.8 6.7 8.1 15.0 15.0 15.0 15.0 15.0 15.0 15.0 15.0 15.0 15.0 11.0 15.0 15.0 15.0 15.0 15.0 15.0 15.0 8.3 15.0 15.0 15.0 15.0 15.0 15.0 15.0
6.2 6.7 3.0 3.6 4.4 2.6 0.5 0.3 0.2 2.3 1.1 4.2 14.7 15.0 14.4 8.9 15.0 14.8 14.4 10.9 12.0 15.0 11.8 15.0 14.9 8.4 3.7 0.2 11.3 13.1 8.5 9.0 13.1 10.1 13.1 14.7 15.0 14.7 14.8 15.0 10.4 15.0 15.0
8.3 14.4 4.2 4.7 5.6 5.8 0.5 0.4 0.2 0.2 0.2 4.0 3.0 15.0 14.9 0.1 0.1 0.3 0.3 1.0 3.4 14.1 9.1 11.4 7.8 6.6 13.3 14.9 4.7 8.7 11.5 14.8 0.0 5.3 13.0 12.2 13.9 15.0 11.3 15.0 15.0 15.0 8.6
7.7 15.0 8.2 8.0 11.6 3.5 8.7 2.5 2.0 7.5 5.7 0.9 1.1 0.2 1.6 5.7 0.1 12.5 0.0 0.1 0.1 4.6 6.5 10.6 8.6 11.2 14.2 12.1 15.0 15.0 15.0 11.0 6.0 0.1 6.4 0.9 0.2 1.1 15.0 15.0 15.0 15.0 14.1
15.0 15.0 11.0 15.0 12.6 3.8 14.4 4.6 8.7 12.3 4.1 4.0 3.0 10.9 6.5 1.3 0.1 5.2 4.9 0.1 0.1 0.2 2.5 8.3 14.8 15.0 15.0 15.0 15.0 15.0 15.0 11.7 0.1 0.0 6.9 0.0 0.0 0.0 0.1 8.5 15.0 15.0 15.0
11.5 15.0 3.4 15.0 15.0 15.0 13.2 15.0 0.8 4.6 14.6 14.0 13.9 14.5 15.0 15.0 0.1 0.2 0.3 0.1 0.1 0.1 0.2 0.4 15.0 15.0 15.0 15.0 6.5 0.1 0.0 0.0 0.0 0.0 0.0 0.0 0.0 0.0 0.0 0.0 1.1 10.9 15.0
10.1 15.0 15.0 15.0 15.0 15.0 14.7 14.1 7.2 15.0 15.0 15.0 14.9 15.0 0.8 0.1 0.1 0.0 0.1 0.1 0.0 0.1 0.1 0.0 0.0 0.1 0.1 0.2 0.1 7.4 2.7 0.1 0.0 0.0 0.0 0.0 0.0 0.0 0.0 0.0 0.0 0.0 0.1